TimeEST,TemperatureF,Dew PointF,Humidity,Sea Level PressureIn,VisibilityMPH,Wind Direction,Wind SpeedMPH,Gust SpeedMPH,PrecipitationIn,Events,Conditions,WindDirDegrees,DateUTC
12:14 AM,45.7,41.5,85,30.16,7.0,Calm,Calm,-,0.01,,Overcast,0,2012-11-10 05:14:00
12:34 AM,45.5,42.3,88,30.15,7.0,SE,4.6,-,0.02,,Overcast,140,2012-11-10 05:34:00
12:54 AM,46.8,40.5,79,30.16,10.0,SE,3.5,-,0.02,,Overcast,130,2012-11-10 05:54:00
1:14 AM,46.8,40.1,78,30.15,10.0,SSE,3.5,-,0.01,,Overcast,160,2012-11-10 06:14:00
1:34 AM,47.1,39.2,74,30.15,10.0,South,3.5,-,0.01,,Overcast,170,2012-11-10 06:34:00
1:54 AM,48.0,38.3,69,30.16,10.0,South,4.6,-,0.01,,Overcast,170,2012-11-10 06:54:00
2:14 AM,48.2,38.1,68,30.16,10.0,South,3.5,-,N/A,,Overcast,170,2012-11-10 07:14:00
2:34 AM,48.0,38.5,70,30.16,10.0,South,6.9,-,N/A,,Overcast,180,2012-11-10 07:34:00
2:54 AM,48.0,37.8,68,30.17,10.0,South,9.2,-,0.01,,Overcast,190,2012-11-10 07:54:00
3:14 AM,48.2,37.6,67,30.17,10.0,South,9.2,-,N/A,,Overcast,190,2012-11-10 08:14:00
3:34 AM,48.2,37.0,65,30.17,10.0,SSW,9.2,-,N/A,,Overcast,200,2012-11-10 08:34:00
3:54 AM,48.2,36.3,63,30.16,10.0,SSW,9.2,-,N/A,,Mostly Cloudy,200,2012-11-10 08:54:00
4:14 AM,47.1,36.0,65,30.16,10.0,SSW,6.9,-,N/A,,Scattered Clouds,200,2012-11-10 09:14:00
4:34 AM,47.3,35.4,63,30.16,10.0,SSW,9.2,-,N/A,,Mostly Cloudy,200,2012-11-10 09:34:00
4:54 AM,47.3,35.6,64,30.16,10.0,SSW,10.4,-,N/A,,Mostly Cloudy,200,2012-11-10 09:54:00
5:14 AM,46.8,35.6,65,30.16,10.0,SSW,9.2,-,N/A,,Scattered Clouds,200,2012-11-10 10:14:00
5:34 AM,46.4,35.2,65,30.16,10.0,SSW,10.4,-,N/A,,Clear,200,2012-11-10 10:34:00
5:54 AM,46.4,34.9,64,30.16,10.0,SSW,9.2,-,N/A,,Clear,210,2012-11-10 10:54:00
6:14 AM,46.2,34.7,64,30.17,10.0,SSW,9.2,-,N/A,,Clear,210,2012-11-10 11:14:00
6:34 AM,45.1,34.7,67,30.17,10.0,SW,10.4,-,N/A,,Clear,220,2012-11-10 11:34:00
6:54 AM,45.1,34.7,67,30.17,10.0,SSW,10.4,-,N/A,,Clear,210,2012-11-10 11:54:00
7:14 AM,45.0,34.7,67,30.18,10.0,SSW,10.4,-,N/A,,Clear,210,2012-11-10 12:14:00
7:34 AM,45.1,34.9,67,30.18,10.0,SSW,9.2,-,N/A,,Clear,210,2012-11-10 12:34:00
7:54 AM,45.5,35.2,67,30.19,10.0,SSW,9.2,-,N/A,,Clear,210,2012-11-10 12:54:00
8:14 AM,45.7,35.6,68,30.19,10.0,SW,10.4,-,N/A,,Clear,220,2012-11-10 13:14:00
8:34 AM,46.6,36.3,67,30.19,10.0,SW,10.4,-,N/A,,Clear,220,2012-11-10 13:34:00
8:54 AM,48.2,37.0,65,30.19,10.0,SW,12.7,-,N/A,,Clear,230,2012-11-10 13:54:00
9:14 AM,49.5,37.8,64,30.19,10.0,SW,9.2,-,N/A,,Clear,230,2012-11-10 14:14:00
9:34 AM,52.0,39.4,62,30.18,10.0,SW,9.2,-,N/A,,Clear,230,2012-11-10 14:34:00
9:54 AM,54.9,39.7,57,30.18,10.0,WSW,16.1,-,N/A,,Clear,240,2012-11-10 14:54:00
10:35 AM,58.5,39.6,49,30.18,10.0,WSW,12.7,-,N/A,,Clear,240,2012-11-10 15:35:00
10:54 AM,60.1,40.1,48,30.18,10.0,WSW,11.5,-,N/A,,Clear,240,2012-11-10 15:54:00
11:14 AM,60.6,39.6,46,30.18,10.0,WSW,13.8,-,N/A,,Clear,240,2012-11-10 16:14:00
11:35 AM,61.5,39.9,45,30.18,10.0,WSW,12.7,-,N/A,,Clear,250,2012-11-10 16:35:00
11:54 AM,62.8,40.1,43,30.17,10.0,WSW,11.5,-,N/A,,Clear,250,2012-11-10 16:54:00
12:14 PM,63.9,41.0,43,30.16,10.0,SSW,13.8,-,N/A,,Clear,210,2012-11-10 17:14:00
12:35 PM,64.2,40.6,42,30.15,10.0,SW,15.0,18.4,N/A,,Clear,220,2012-11-10 17:35:00
12:54 PM,64.6,40.6,42,30.14,10.0,SSW,12.7,-,N/A,,Clear,210,2012-11-10 17:54:00
1:14 PM,65.3,41.4,42,30.13,10.0,SSW,13.8,-,N/A,,Clear,210,2012-11-10 18:14:00
1:35 PM,66.4,41.9,41,30.13,10.0,SSW,11.5,-,N/A,,Clear,210,2012-11-10 18:35:00
1:54 PM,67.1,42.4,41,30.12,10.0,SW,16.1,-,N/A,,Clear,220,2012-11-10 18:54:00
2:14 PM,67.6,42.8,41,30.12,10.0,SSW,13.8,-,N/A,,Clear,210,2012-11-10 19:14:00
2:34 PM,68.2,43.5,41,30.11,10.0,SSW,13.8,-,N/A,,Clear,210,2012-11-10 19:34:00
2:54 PM,68.4,43.5,41,30.11,10.0,SW,15.0,18.4,N/A,,Clear,230,2012-11-10 19:54:00
3:14 PM,68.2,44.1,42,30.11,10.0,SW,17.3,-,N/A,,Clear,220,2012-11-10 20:14:00
3:34 PM,68.4,44.2,42,30.11,10.0,SW,18.4,-,N/A,,Clear,220,2012-11-10 20:34:00
3:54 PM,68.0,43.7,41,30.11,10.0,SSW,12.7,-,N/A,,Clear,210,2012-11-10 20:54:00
4:14 PM,67.6,43.2,41,30.12,10.0,SSW,13.8,-,N/A,,Clear,210,2012-11-10 21:14:00
4:34 PM,66.7,41.5,40,30.12,10.0,SW,12.7,-,N/A,,Clear,220,2012-11-10 21:34:00
4:54 PM,65.1,41.4,42,30.13,10.0,SSW,11.5,18.4,N/A,,Clear,210,2012-11-10 21:54:00
5:14 PM,64.0,40.8,43,30.13,10.0,SW,11.5,-,N/A,,Clear,220,2012-11-10 22:14:00
5:34 PM,63.1,40.1,43,30.14,10.0,SSW,13.8,-,N/A,,Clear,210,2012-11-10 22:34:00
5:54 PM,62.6,40.3,44,30.14,10.0,SSW,10.4,-,N/A,,Clear,200,2012-11-10 22:54:00
6:14 PM,61.0,40.5,47,30.15,10.0,SSW,10.4,-,N/A,,Clear,210,2012-11-10 23:14:00
6:34 PM,60.8,40.5,47,30.15,10.0,SSW,12.7,-,N/A,,Clear,200,2012-11-10 23:34:00
6:54 PM,60.3,40.1,47,30.15,10.0,SSW,12.7,17.3,N/A,,Clear,200,2012-11-10 23:54:00
7:14 PM,59.9,39.7,47,30.16,10.0,SSW,11.5,-,N/A,,Clear,210,2012-11-11 00:14:00
7:34 PM,59.0,39.7,49,30.16,10.0,SSW,12.7,-,N/A,,Clear,210,2012-11-11 00:34:00
7:54 PM,58.1,39.9,51,30.16,10.0,SSW,10.4,-,N/A,,Clear,200,2012-11-11 00:54:00
8:14 PM,56.8,39.7,53,30.17,10.0,SSW,8.1,-,N/A,,Clear,210,2012-11-11 01:14:00
8:34 PM,55.4,39.6,55,30.17,10.0,SW,8.1,-,N/A,,Clear,220,2012-11-11 01:34:00
8:54 PM,54.9,39.7,57,30.17,10.0,SW,9.2,-,N/A,,Clear,220,2012-11-11 01:54:00
9:14 PM,55.9,39.7,55,30.17,10.0,SW,11.5,-,N/A,,Clear,220,2012-11-11 02:14:00
9:34 PM,56.1,39.6,54,30.17,10.0,SW,10.4,-,N/A,,Clear,220,2012-11-11 02:34:00
9:55 PM,56.8,39.2,52,30.17,10.0,SW,13.8,-,N/A,,Clear,220,2012-11-11 02:55:00
10:14 PM,56.1,38.8,52,30.18,10.0,SW,11.5,-,N/A,,Clear,220,2012-11-11 03:14:00
10:34 PM,55.8,38.5,52,30.18,10.0,SW,10.4,-,N/A,,Clear,220,2012-11-11 03:34:00
11:14 PM,54.3,38.3,55,30.17,10.0,SW,9.2,-,N/A,,Clear,220,2012-11-11 04:14:00
11:34 PM,54.7,37.9,53,30.17,10.0,SW,11.5,-,N/A,,Clear,220,2012-11-11 04:34:00
11:54 PM,54.1,37.6,54,30.17,10.0,SW,11.5,-,N/A,,Clear,220,2012-11-11 04:54:00